Home > Weather > Chilliwack > Past weeks

Flag for Canada Weather for the Past 2 Weeks in Chilliwack, British Columbia, Canada

Now
53 °F

Cool.


Feels Like: 53 °F
Forecast: 37 / 58 °F
Wind: 2 mph from Southeast

Location: Agassiz

Current Time: Apr 29, 2016 at 3:23:06 PM

Latest Report: Apr 29, 2016 at 2:00 PM


Visibility: N/A

Pressure: 30.10 "Hg

Humidity: 82%

Dew Point: 48 °F

Location of ChilliwackLocation

Historic Weather in Chilliwack — Graph

°F

Chilliwack Temperature Yesterday

Maximum temperature yesterday: 62 °F (at 3:00 PM)
Minimum temperature yesterday: 47 °F (at 2:00 AM)
Average temperature yesterday: 55 °F

High & Low Weather Summary for the Past Weeks

 TemperatureHumidityPressure
High83 °F (Apr 18, 5:00 PM)97% (Apr 16, 12:00 AM)30.38 "Hg (Apr 16, 12:00 AM)
Low40 °F (Apr 16, 5:00 AM)21% (Apr 18, 5:00 PM)29.57 "Hg (Apr 22, 5:00 AM)
Average57 °F70%30.02 "Hg
* Reported Apr 14 1:00 PM — Apr 29 1:00 PM, Chilliwack, Weather by CustomWeather, © 2016

Note: Actual official high and low records may vary slightly from our data, if they occured in-between our weather recording intervals... More about our weather records

Advertising

Chilliwack Weather History for the Previous 24 Hours

Scroll right to see more
 ConditionsComfort  
Time TempWeatherWind HumidityBarometerVisibility
1:00 PM
Fri, Apr 29
53 °FCool.3 mph82%30.09 "HgN/A
12:00 PM53 °FCool.6 mph78%30.09 "HgN/A
11:00 AM54 °FCool.3 mph71%30.08 "HgN/A
10:00 AM53 °FCool.1 mph72%30.07 "HgN/A
9:00 AM51 °FCool.2 mph78%30.06 "HgN/A
8:00 AM52 °FCool.1 mph79%30.05 "HgN/A
7:00 AM52 °FCool.No wind80%30.04 "HgN/A
6:00 AM51 °FCool.1 mph83%30.04 "HgN/A
5:00 AM53 °FCool.1 mph78%30.04 "HgN/A
4:00 AM53 °FCool.1 mph84%30.04 "HgN/A
3:00 AM52 °FCool.1 mph91%30.04 "HgN/A
2:00 AM53 °FCool.1 mph84%30.05 "HgN/A
1:00 AM53 °FCool.No wind82%30.05 "HgN/A
12:00 AM54 °FCool.2 mph77%30.05 "HgN/A
11:00 PM
Thu, Apr 28
55 °FCool.1 mph72%30.06 "HgN/A
10:00 PM55 °FCool.1 mph71%30.06 "HgN/A
9:00 PM56 °FCool.1 mph67%30.05 "HgN/A
8:00 PM58 °FCool.1 mph64%30.04 "HgN/A
7:00 PM60 °FCool.2 mph62%30.04 "HgN/A
6:00 PM60 °FCool.5 mph60%30.05 "HgN/A
5:00 PM61 °FRefreshingly cool.5 mph57%30.05 "HgN/A
4:00 PM62 °FRefreshingly cool.3 mph50%30.05 "HgN/A
3:00 PM62 °FRefreshingly cool.3 mph52%30.05 "HgN/A
Weather by CustomWeather, © 2016

See weather overviewHow to use our weather pages